Cut Bank, MT

9:15 AM MDT on August 29, 2016 (GMT -0600)
Cut Bank Municipal

Weather History for KCTB - January, 2014

Change the Weather History Date:

Sunday, January 26, 2014

  Actual Average Record
Temperature  
Mean Temperature 20 °F 23 °F  
Max Temperature 39 °F 33 °F 66 °F (2015)
Min Temperature 1 °F 12 °F -39 °F (1916)
Degree Days  
Heating Degree Days 45 42  
Month to date heating degree days 913 1117  
Since 1 July heating degree days 4442 4707  
Cooling Degree Days 0 0  
Month to date cooling degree days 0 0  
Year to date cooling degree days 0 0  
Moisture  
Dew Point 17 °F    
Average Humidity 76    
Maximum Humidity 91    
Minimum Humidity 61    
Precipitation  
Precipitation 0.02 in 0.01 in 0.14 in (1978)
Month to date precipitation 0.34 0.17  
Year to date precipitation 0.34 0.17  
Snow  
Snow 0.00 in - - ()
Snow Depth 0.00 in    
Sea Level Pressure  
Sea Level Pressure 30.26 in    
Wind  
Wind Speed 12 mph (North)    
Max Wind Speed 37 mph    
Max Gust Speed 42 mph    
Visibility 7 miles    
Events Snow    
T = Trace of Precipitation, MM = Missing Value Source: NWS Daily Summary

Daily Weather History Graph

Daily Weather History Graph

Search for Another Location

Airport or City:

Trip Planner

Search our weather history database for the weather conditions in past years. The results will help you decide how hot, cold, wet, or windy it might be!

Date:

Astronomy

Jan. 26, 2014 Rise Set
Actual Time 8:06 AM MST 5:18 PM MST
Civil Twilight 7:31 AM MST 5:52 PM MST
Nautical Twilight 6:53 AM MST 6:31 PM MST
Astronomical Twilight 6:16 AM MST 7:08 PM MST
Moon 3:49 AM MST (1/26) 1:08 PM MST (1/26)
Length of Visible Light 10h 21m
Length of Day
9h 12m
Waning Crescent, 23% of the Moon is Illuminated
Jan 26
Waning Crescent
Jan 30
New
Feb 6
First Quarter
Feb 14
Full
Feb 22
Last Quarter

Hourly Weather History & Observations

Time (MST) Temp. Windchill Dew Point Humidity Pressure Visibility Wind Dir Wind Speed Gust Speed Precip Events Conditions
12:56 AM 37.9 °F 30.5 °F 28.0 °F 68% 30.03 in 10.0 mi WNW 11.5 mph - N/A   Overcast
1:56 AM 37.9 °F 30.0 °F 27.0 °F 65% 30.01 in 10.0 mi West 12.7 mph - N/A   Overcast
2:56 AM 37.0 °F 29.3 °F 27.0 °F 67% 30.02 in 10.0 mi West 11.5 mph - N/A   Overcast
3:56 AM 36.0 °F 27.1 °F 26.1 °F 67% 30.04 in 10.0 mi NW 13.8 mph - N/A   Overcast
4:14 AM 36.0 °F 27.1 °F 28.0 °F 73% 30.02 in 10.0 mi North 13.8 mph - N/A   Overcast
4:56 AM 35.1 °F 25.5 °F 28.9 °F 78% 30.10 in 4.0 mi North 15.0 mph - 0.00 in Snow Light Snow
5:03 AM 34.0 °F 22.7 °F 30.0 °F 85% 30.05 in 2.5 mi North 19.6 mph 24.2 mph 0.00 in Snow Light Snow
5:10 AM 34.0 °F 23.4 °F 30.9 °F 89% 30.06 in 1.8 mi North 17.3 mph - 0.00 in Snow Light Snow
5:21 AM 33.1 °F 22.2 °F 30.9 °F 92% 30.06 in 3.0 mi NNW 17.3 mph - 0.00 in Snow Light Snow
5:42 AM 33.1 °F 21.5 °F 30.9 °F 92% 30.06 in 8.0 mi NNW 19.6 mph - 0.00 in Snow Light Snow
5:56 AM 33.1 °F 21.5 °F 30.9 °F 92% 30.14 in 9.0 mi NNW 19.6 mph - 0.00 in   Overcast
6:56 AM 33.1 °F 18.2 °F 28.0 °F 82% 30.17 in 3.0 mi North 34.5 mph 42.6 mph 0.01 in Snow Light Snow
7:29 AM 32.0 °F 18.6 °F 28.0 °F 85% 30.12 in 2.5 mi North 25.3 mph 36.8 mph 0.00 in Snow Light Snow
7:40 AM 30.9 °F 15.7 °F 28.0 °F 89% 30.13 in 1.5 mi North 32.2 mph 41.4 mph 0.01 in Snow Light Snow
7:48 AM 30.0 °F 14.7 °F 27.0 °F 88% 30.14 in 1.8 mi North 31.1 mph 42.6 mph 0.01 in Snow Light Snow
7:56 AM 28.0 °F 12.3 °F 25.0 °F 88% 30.25 in 1.8 mi NNE 29.9 mph 40.3 mph 0.01 in Snow Light Snow
8:02 AM 27.0 °F 11.0 °F 25.0 °F 92% 30.17 in 2.0 mi NNE 28.8 mph 40.3 mph 0.00 in Snow Light Snow
8:09 AM 27.0 °F 10.0 °F 24.1 °F 89% 30.18 in 1.8 mi NNE 33.4 mph 40.3 mph 0.00 in Snow Light Snow
8:17 AM 25.0 °F 7.3 °F 23.0 °F 92% 30.20 in 2.0 mi NNE 33.4 mph 41.4 mph 0.00 in Snow Light Snow
8:30 AM 24.1 °F 6.9 °F 19.9 °F 84% 30.21 in 1.8 mi North 29.9 mph 41.4 mph 0.00 in Snow Light Snow
8:56 AM 21.0 °F 2.4 °F 16.0 °F 81% 30.35 in 1.2 mi NNE 31.1 mph 39.1 mph 0.00 in Snow Light Snow
9:23 AM 19.9 °F 1.8 °F 10.9 °F 68% 30.28 in 3.0 mi North 27.6 mph 40.3 mph 0.00 in Snow Light Snow
9:31 AM 19.9 °F 2.2 °F 10.9 °F 68% 30.29 in 9.0 mi North 26.5 mph 35.7 mph 0.00 in   Overcast
9:56 AM 19.9 °F 3.5 °F 12.0 °F 71% 30.42 in 10.0 mi North 21.9 mph - 0.00 in   Overcast
10:56 AM 17.1 °F 0.6 °F 6.1 °F 62% 30.49 in 10.0 mi North 19.6 mph 26.5 mph N/A   Overcast
11:56 AM 17.1 °F 2.5 °F 9.0 °F 71% 30.49 in 10.0 mi North 15.0 mph - N/A   Overcast
12:56 PM 16.0 °F 1.7 °F 8.1 °F 71% 30.49 in 10.0 mi North 13.8 mph - N/A   Overcast
1:56 PM 15.1 °F 3.3 °F 7.0 °F 70% 30.49 in 10.0 mi North 9.2 mph - N/A   Overcast
2:56 PM 15.1 °F 9.4 °F 7.0 °F 70% 30.48 in 10.0 mi North 3.5 mph - N/A   Overcast
3:56 PM 15.1 °F 7.7 °F 6.1 °F 68% 30.46 in 10.0 mi NNE 4.6 mph - N/A   Mostly Cloudy
4:56 PM 12.0 °F 5.9 °F 6.1 °F 77% 30.46 in 10.0 mi NNE 3.5 mph - N/A   Partly Cloudy
5:56 PM 10.9 °F 4.7 °F 3.9 °F 73% 30.45 in 10.0 mi ESE 3.5 mph - N/A   Clear
6:56 PM 9.0 °F - 3.0 °F 77% 30.44 in 10.0 mi Calm Calm - N/A   Clear
7:56 PM 8.1 °F - 3.0 °F 80% 30.45 in 10.0 mi Calm Calm - N/A   Clear
8:56 PM 8.1 °F - 3.0 °F 80% 30.46 in 10.0 mi Calm Calm - N/A   Clear
9:56 PM 3.9 °F -6.9 °F -0.0 °F 84% 30.46 in 10.0 mi NNW 5.8 mph - N/A   Clear
10:56 PM 3.9 °F -6.9 °F 1.0 °F 88% 30.46 in 10.0 mi NW 5.8 mph - N/A   Clear
11:56 PM 1.9 °F -9.2 °F -0.9 °F 88% 30.46 in 10.0 mi WNW 5.8 mph - N/A   Clear